FW7194 Weather Reports


Display with metric or nautical units.
time (UTC)temp
F
wind
direction
speed
MPH
gust
MPH
rain 1hr
in
rain 24hr
in
rain mn
in
humidity
%
barometer
mb
20260508024913 70 226 0.0 0.0 0.00 0.30 0.30 97 1009.5
20260508024410 70 101 1.0 1.0 0.00 0.30 0.30 97 1009.5
20260508023906 70 253 2.0 2.0 0.00 0.30 0.30 97 1009.6
20260508023403 70 190 0.0 0.0 0.00 0.30 0.30 97 1009.4
20260508022900 70 205 0.0 0.0 0.00 0.30 0.30 97 1009.4
20260508022355 70 207 0.0 0.0 0.00 0.30 0.30 97 1009.4
20260508021853 70 110 0.0 3.0 0.00 0.30 0.30 97 1009.4
20260508021349 71 209 0.0 0.0 0.00 0.30 0.30 97 1009.2
20260508020845 71 165 0.0 2.0 0.00 0.30 0.30 97 1009.2
20260508020343 71 228 0.0 2.0 0.00 0.30 0.30 97 1009.2
20260508015840 71 346 1.0 3.0 0.00 0.30 0.30 97 1009.1
20260508015337 71 213 0.0 0.0 0.00 0.30 0.30 97 1009.0
20260508014834 71 323 2.0 3.0 0.00 0.30 0.30 97 1009.0
20260508014331 71 211 0.0 0.0 0.00 0.30 0.30 97 1008.7
20260508013832 71 225 0.0 1.0 0.00 0.30 0.30 97 1009.0
20260508013328 71 134 1.0 2.0 0.00 0.30 0.30 96 1008.8
20260508012826 71 217 0.0 0.0 0.00 0.30 0.30 96 1008.7
20260508012323 71 156 0.0 0.0 0.00 0.30 0.30 96 1008.5
20260508011821 71 215 0.0 0.0 0.00 0.30 0.30 96 1008.7
20260508011318 71 231 0.0 2.0 0.00 0.30 0.30 96 1008.6
20260508010815 71 251 2.0 3.0 0.00 0.30 0.30 96 1008.4
20260508010313 71 270 0.0 2.0 0.00 0.30 0.30 96 1008.2
20260508005809 71 203 1.0 3.0 0.00 0.30 0.30 96 1008.2
20260508005306 72 262 2.0 3.0 0.00 0.30 0.30 96 1008.3
20260508004802 72 220 0.0 1.0 0.00 0.30 0.30 96 1008.1
20260508004259 72 187 0.0 3.0 0.00 0.30 0.30 96 1008.3
20260508003755 72 222 0.0 2.0 0.00 0.30 0.30 96 1008.1
20260508003253 72 255 1.0 2.0 0.00 0.30 0.30 96 1007.9
20260508002749 72 199 2.0 3.0 0.00 0.30 0.30 97 1007.9
20260508002246 72 79 0.0 2.0 0.00 0.30 0.30 97 1008.1
20260508001742 72 131 1.0 2.0 0.00 0.30 0.30 96 1007.8
20260508001238 72 201 5.0 7.0 0.00 0.30 0.30 97 1008.0
20260508000734 72 181 2.0 3.0 0.00 0.30 0.30 96 1007.9
20260508000234 72 279 1.0 3.0 0.00 0.30 0.30 96 1008.0
20260507235728 72 238 1.0 2.0 0.00 0.30 0.30 96 1007.9
20260507235225 72 199 0.0 1.0 0.00 0.30 0.30 96 1007.8
20260507234722 73 52 2.0 3.0 0.00 0.30 0.30 96 1008.1
20260507234219 73 205 2.0 2.0 0.00 0.30 0.30 96 1008.0
20260507233715 73 293 2.0 2.0 0.00 0.30 0.30 96 1008.1
20260507233214 73 144 1.0 6.0 0.00 0.30 0.30 96 1007.8
20260507232710 73 125 2.0 3.0 0.00 0.30 0.30 96 1007.8
20260507232208 73 5 4.0 7.0 0.00 0.30 0.30 96 1007.9
20260507231704 73 203 0.0 3.0 0.00 0.30 0.30 96 1007.9
20260507231201 73 163 0.0 1.0 0.00 0.30 0.30 96 1007.9
20260507230658 73 228 0.0 3.0 0.00 0.30 0.30 96 1007.9
20260507230155 73 251 1.0 3.0 0.00 0.30 0.30 96 1007.7
20260507225654 73 218 0.0 1.0 0.00 0.30 0.30 96 1007.8
20260507225152 73 201 0.0 2.0 0.00 0.30 0.30 96 1007.8
20260507224647 73 224 0.0 1.0 0.00 0.30 0.30 96 1007.7
20260507224144 73 16 2.0 2.0 0.00 0.30 0.30 96 1007.7
20260507223640 73 216 0.0 1.0 0.00 0.30 0.30 96 1007.5
20260507223137 73 245 1.0 2.0 0.00 0.30 0.30 96 1007.8
20260507222634 73 174 3.0 5.0 0.00 0.30 0.30 96 1007.6
20260507222130 73 348 3.0 21.0 0.00 0.30 0.30 96 1007.6
20260507221626 73 264 4.0 7.0 0.00 0.30 0.30 96 1007.7
20260507221123 73 267 0.0 1.0 0.00 0.30 0.30 96 1007.5
20260507220620 73 273 1.0 6.0 0.00 0.30 0.30 96 1007.5
20260507220118 73 225 0.0 6.0 0.00 0.30 0.30 96 1007.5
20260507215614 73 253 1.0 5.0 0.00 0.30 0.30 96 1007.5
20260507215112 73 294 1.0 3.0 0.00 0.30 0.30 96 1007.7
20260507214609 73 196 2.0 2.0 0.00 0.30 0.30 95 1007.6
20260507214105 73 252 1.0 5.0 0.00 0.30 0.30 95 1007.7
20260507213601 72 257 2.0 6.0 0.00 0.30 0.30 95 1007.8
20260507213058 72 208 2.0 2.0 0.00 0.30 0.30 95 1007.8
20260507212554 72 246 0.0 2.0 0.00 0.30 0.30 95 1007.8
20260507212051 72 207 1.0 3.0 0.00 0.30 0.30 95 1007.8
20260507211548 72 269 1.0 2.0 0.00 0.30 0.30 94 1007.8
20260507211044 72 259 1.0 2.0 0.00 0.30 0.30 94 1008.1
20260507210541 71 315 2.0 3.0 0.00 0.30 0.30 94 1007.9
20260507210038 71 255 0.0 3.0 0.00 0.30 0.30 94 1008.1
20260507205535 71 170 0.0 3.0 0.00 0.30 0.30 93 1007.9
20260507205031 71 283 3.0 3.0 0.00 0.30 0.30 93 1008.2
20260507204527 71 333 0.0 3.0 0.00 0.30 0.30 93 1008.3
20260507204025 71 254 1.0 2.0 0.00 0.30 0.30 92 1008.2
20260507203523 71 260 1.0 3.0 0.00 0.30 0.30 92 1008.4
20260507203020 71 151 1.0 3.0 0.02 0.30 0.30 91 1008.1
20260507202515 71 306 2.0 3.0 0.05 0.30 0.30 91 1008.6
20260507202012 71 230 0.0 2.0 0.07 0.30 0.30 90 1008.7
20260507201508 71 251 0.0 2.0 0.05 0.29 0.29 90 1008.6
20260507201004 71 235 0.0 2.0 0.00 0.29 0.29 90 1008.5
20260507200459 72 285 1.0 2.0 0.00 0.29 0.29 89 1008.4
20260507195955 72 219 1.0 2.0 0.00 0.29 0.29 89 1008.1
20260507195453 72 215 0.0 2.0 0.00 0.29 0.29 88 1008.2
20260507194950 72 201 1.0 2.0 0.12 0.29 0.29 87 1007.8
20260507194447 72 223 2.0 3.0 0.52 0.29 0.29 86 1008.2
20260507193943 73 287 1.0 3.0 0.59 0.27 0.27 85 1008.6
20260507193440 73 199 1.0 5.0 0.52 0.20 0.20 84 1008.3
20260507192937 73 244 1.0 2.0 0.64 0.17 0.17 84 1009.2
20260507192433 74 14 1.0 6.0 0.42 0.11 0.11 83 1009.1
20260507191930 75 117 2.0 3.0 0.28 0.06 0.06 80 1009.1
20260507191426 77 346 2.0 10.0 0.12 0.03 0.03 77 1009.4
20260507190922 77 67 1.0 3.0 0.07 0.02 0.02 74 1008.7
20260507190420 78 258 1.0 3.0 0.02 0.01 0.01 72 1008.5
20260507185919 78 301 1.0 5.0 0.00 0.00 0.00 72 1008.5
20260507185416 79 324 4.0 7.0 0.00 0.00 0.00 72 1008.3
20260507184913 79 216 3.0 6.0 0.00 0.00 0.00 71 1008.0
20260507184411 79 112 2.0 5.0 0.00 0.00 0.00 71 1008.4
20260507183908 79 203 1.0 5.0 0.00 0.00 0.00 71 1008.1
20260507183405 80 216 3.0 6.0 0.00 0.00 0.00 72 1008.1
20260507182902 80 234 1.0 8.0 0.00 0.00 0.00 71 1008.2
20260507182357 80 230 1.0 7.0 0.00 0.00 0.00 71 1008.0
20260507181854 80 227 4.0 7.0 0.00 0.00 0.00 71 1008.3
20260507181350 79 201 2.0 6.0 0.00 0.00 0.00 70 1008.5
20260507180847 79 173 9.0 11.0 0.00 0.00 0.00 71 1008.2
20260507180344 79 212 7.0 8.0 0.00 0.00 0.00 72 1008.5
20260507175840 79 263 4.0 7.0 0.00 0.00 0.00 71 1008.3
20260507175337 78 206 5.0 7.0 0.00 0.00 0.00 71 1008.4
20260507174834 78 294 3.0 10.0 0.00 0.00 0.00 70 1008.3
20260507174332 78 134 5.0 10.0 0.00 0.00 0.00 69 1008.1
20260507173829 78 209 8.0 13.0 0.00 0.00 0.00 68 1008.3
20260507173326 78 219 5.0 8.0 0.00 0.00 0.00 67 1008.4
20260507172822 78 261 8.0 11.0 0.00 0.00 0.00 67 1008.6
20260507172319 78 264 4.0 11.0 0.00 0.00 0.00 66 1008.8
20260507171815 78 217 6.0 9.0 0.00 0.00 0.00 65 1008.5
20260507171312 78 216 6.0 17.0 0.00 0.00 0.00 63 1008.2
20260507170809 78 181 7.0 17.0 0.00 0.00 0.00 62 1008.3
20260507170305 79 199 11.0 16.0 0.00 0.00 0.00 60 1008.2
20260507165801 79 195 15.0 21.0 0.00 0.00 0.00 61 1008.4
20260507165258 79 215 9.0 10.0 0.00 0.00 0.00 62 1008.8
20260507164754 79 226 11.0 15.0 0.00 0.00 0.00 62 1009.0
20260507164251 79 201 7.0 13.0 0.00 0.00 0.00 62 1009.0
20260507163748 79 151 4.0 8.0 0.00 0.00 0.00 64 1009.2
20260507163246 79 180 3.0 11.0 0.00 0.00 0.00 64 1009.3
20260507162741 79 233 7.0 11.0 0.00 0.00 0.00 65 1009.7
20260507162237 78 193 10.0 18.0 0.00 0.00 0.00 67 1009.8
20260507161735 78 219 6.0 10.0 0.00 0.00 0.00 69 1009.6
20260507161231 78 212 3.0 7.0 0.00 0.00 0.00 71 1009.8
20260507160727 77 199 2.0 7.0 0.00 0.00 0.00 71 1009.9
20260507160223 77 297 1.0 5.0 0.00 0.00 0.00 73 1010.1
20260507155720 76 4 5.0 8.0 0.00 0.00 0.00 74 1010.0
20260507155216 76 179 1.0 3.0 0.00 0.00 0.00 75 1010.2
20260507154712 76 241 2.0 6.0 0.00 0.00 0.00 74 1010.2
20260507154210 76 217 2.0 7.0 0.00 0.00 0.00 76 1010.4
20260507153707 76 206 2.0 5.0 0.00 0.00 0.00 76 1010.3
20260507153203 76 225 2.0 5.0 0.00 0.00 0.00 78 1010.1
20260507152659 75 229 2.0 6.0 0.00 0.00 0.00 77 1009.9
20260507152155 75 266 2.0 5.0 0.00 0.00 0.00 77 1009.9
20260507151652 75 215 5.0 9.0 0.00 0.00 0.00 77 1010.2
20260507151148 74 199 2.0 9.0 0.00 0.00 0.00 79 1009.8
20260507150646 74 175 3.0 7.0 0.00 0.00 0.00 80 1009.7
20260507150142 74 227 4.0 6.0 0.00 0.00 0.00 81 1009.5
20260507145638 74 222 2.0 3.0 0.00 0.00 0.00 82 1009.6
20260507145135 73 203 0.0 5.0 0.00 0.00 0.00 81 1009.7
20260507144631 73 209 3.0 7.0 0.00 0.00 0.00 81 1009.4
20260507144130 73 162 6.0 7.0 0.00 0.00 0.00 81 1009.9
20260507143626 73 223 1.0 6.0 0.00 0.00 0.00 82 1010.2
20260507143123 73 312 2.0 7.0 0.00 0.00 0.00 82 1010.3
20260507142619 73 195 5.0 8.0 0.00 0.00 0.00 82 1010.5
20260507142116 73 199 2.0 8.0 0.00 0.00 0.00 82 1010.8
20260507141612 73 250 7.0 13.0 0.00 0.00 0.00 83 1010.7
20260507141109 73 221 4.0 14.0 0.00 0.00 0.00 83 1010.8
20260507140605 73 169 3.0 6.0 0.00 0.00 0.00 84 1010.5
20260507135600 72 192 6.0 10.0 0.00 0.00 0.00 84 1010.5
20260507135057 72 257 5.0 8.0 0.00 0.00 0.00 83 1009.6
20260507134553 72 203 5.0 10.0 0.00 0.00 0.00 83 1009.5
20260507134049 72 221 2.0 11.0 0.00 0.00 0.00 83 1009.4
20260507133546 72 211 9.0 11.0 0.00 0.00 0.00 84 1009.2
20260507133044 72 199 3.0 9.0 0.00 0.00 0.00 84 1009.0
20260507132540 72 223 11.0 16.0 0.00 0.00 0.00 83 1008.7
20260507132036 72 192 9.0 18.0 0.00 0.00 0.00 84 1008.4
20260507131533 72 239 7.0 11.0 0.00 0.00 0.00 84 1008.6
20260507131031 72 218 5.0 10.0 0.00 0.00 0.00 85 1008.8
20260507130527 72 190 6.0 8.0 0.00 0.00 0.00 86 1008.6
20260507130026 72 201 7.0 10.0 0.00 0.00 0.00 87 1009.0
20260507125524 72 184 5.0 7.0 0.00 0.00 0.00 87 1009.3
20260507125021 72 231 5.0 8.0 0.00 0.00 0.00 88 1009.4
20260507124517 72 210 5.0 8.0 0.00 0.00 0.00 88 1009.5
20260507124016 72 190 3.0 9.0 0.00 0.00 0.00 89 1009.8
20260507123513 72 158 4.0 7.0 0.00 0.00 0.00 89 1009.9
20260507123010 72 174 2.0 5.0 0.00 0.00 0.00 89 1010.1
20260507122504 72 197 4.0 7.0 0.00 0.00 0.00 89 1010.2
20260507122001 72 212 3.0 5.0 0.00 0.00 0.00 90 1010.5
20260507121456 71 217 5.0 7.0 0.00 0.00 0.00 90 1010.5
20260507120953 71 192 10.0 11.0 0.00 0.00 0.00 90 1010.6
20260507120449 71 196 6.0 7.0 0.00 0.00 0.00 90 1010.6
20260507115946 71 206 2.0 6.0 0.00 0.00 0.00 90 1010.9
20260507115442 71 220 1.0 5.0 0.00 0.00 0.00 90 1010.7
20260507114932 71 195 3.0 8.0 0.00 0.00 0.00 90 1010.9
20260507114429 71 175 1.0 3.0 0.00 0.00 0.00 90 1011.0
20260507113926 71 224 5.0 6.0 0.00 0.00 0.00 90 1011.3
20260507113422 71 237 2.0 2.0 0.00 0.00 0.00 90 1011.5
20260507112920 71 182 4.0 5.0 0.00 0.00 0.00 90 1011.4
20260507112418 71 210 2.0 3.0 0.00 0.00 0.00 89 1011.2
20260507111914 71 187 1.0 6.0 0.00 0.00 0.00 89 1011.0
20260507111412 71 216 3.0 7.0 0.02 0.00 0.00 89 1011.6
20260507110908 71 195 2.0 9.0 0.02 0.00 0.00 89 1011.7
20260507110404 72 211 5.0 7.0 0.00 0.00 0.00 89 1011.8
20260507105901 72 196 1.0 2.0 0.00 0.00 0.00 89 1011.4
20260507105358 72 228 1.0 2.0 0.00 0.00 0.00 89 1011.3
20260507104854 72 203 0.0 2.0 0.00 0.00 0.00 89 1011.4
20260507104351 72 245 1.0 6.0 0.00 0.00 0.00 88 1011.4
20260507103847 72 20 1.0 3.0 0.00 0.00 0.00 88 1011.9
20260507103344 72 269 2.0 3.0 0.00 0.00 0.00 88 1011.8
20260507102840 73 24 0.0 2.0 0.00 0.00 0.00 88 1011.4
20260507102337 73 236 1.0 3.0 0.00 0.00 0.00 87 1012.1
20260507101834 73 257 1.0 3.0 0.00 0.00 0.00 87 1012.1
20260507101333 73 242 2.0 3.0 0.00 0.00 0.00 86 1012.3
20260507100831 73 191 2.0 3.0 0.00 0.00 0.00 86 1012.6
20260507100329 73 196 1.0 3.0 0.00 0.00 0.00 85 1012.2
20260507095827 73 206 5.0 6.0 0.00 0.00 0.00 85 1012.0
20260507095323 73 222 3.0 5.0 0.00 0.00 0.00 85 1012.0
20260507094820 73 225 4.0 6.0 0.00 0.00 0.00 85 1011.8
20260507094317 73 195 3.0 6.0 0.00 0.00 0.00 84 1011.8
20260507093814 73 199 3.0 7.0 0.00 0.00 0.00 84 1011.7
20260507093312 73 180 3.0 5.0 0.00 0.00 0.00 84 1011.6
20260507092810 74 208 3.0 6.0 0.00 0.00 0.00 84 1011.4
20260507092307 74 207 2.0 6.0 0.00 0.00 0.00 83 1011.7
20260507091803 74 225 3.0 7.0 0.00 0.00 0.00 83 1011.5
20260507091259 74 209 2.0 3.0 0.00 0.00 0.00 83 1011.3
20260507090759 74 198 4.0 9.0 0.00 0.00 0.00 83 1011.3
20260507090256 74 250 2.0 10.0 0.00 0.00 0.00 83 1011.4
20260507085753 74 257 4.0 9.0 0.00 0.00 0.00 83 1011.3
20260507085250 74 223 5.0 7.0 0.00 0.00 0.00 83 1011.2
20260507084747 74 197 10.0 13.0 0.00 0.00 0.00 83 1011.0
20260507084243 74 203 8.0 14.0 0.00 0.00 0.00 83 1010.7
20260507083741 74 185 5.0 17.0 0.00 0.00 0.00 83 1010.4
20260507083238 74 194 7.0 13.0 0.00 0.00 0.00 83 1010.7
20260507082734 74 218 4.0 6.0 0.00 0.00 0.00 84 1010.7
20260507082229 74 182 7.0 10.0 0.00 0.00 0.00 84 1010.9
20260507081727 74 205 2.0 10.0 0.00 0.00 0.00 85 1010.8
20260507081222 74 291 5.0 10.0 0.00 0.00 0.00 85 1010.8
20260507080719 74 237 7.0 11.0 0.00 0.00 0.00 85 1010.8
20260507080215 74 234 2.0 9.0 0.00 0.00 0.00 85 1010.7
20260507075711 74 214 5.0 9.0 0.00 0.00 0.00 86 1010.7
20260507075208 74 230 7.0 8.0 0.00 0.00 0.00 86 1010.4
20260507074704 74 222 8.0 14.0 0.00 0.00 0.00 86 1010.5
20260507074202 74 196 5.0 15.0 0.00 0.00 0.00 86 1010.3
20260507073658 74 304 5.0 9.0 0.00 0.00 0.00 86 1010.0
20260507073154 74 200 4.0 16.0 0.00 0.00 0.00 86 1010.1
20260507072653 74 199 6.0 11.0 0.00 0.00 0.00 86 1010.0
20260507072150 74 195 11.0 15.0 0.00 0.00 0.00 86 1009.7
20260507071648 74 215 5.0 13.0 0.00 0.00 0.00 86 1010.2
20260507071143 74 223 7.0 16.0 0.00 0.00 0.00 86 1010.4
20260507070641 74 201 2.0 7.0 0.00 0.00 0.00 86 1010.4
20260507070137 74 215 6.0 14.0 0.00 0.00 0.00 86 1010.7
20260507065634 74 254 4.0 10.0 0.00 0.00 0.00 86 1010.6
20260507065131 74 217 8.0 10.0 0.00 0.00 0.00 86 1010.8
20260507064628 74 173 5.0 8.0 0.00 0.00 0.00 86 1010.9
20260507064127 74 232 6.0 11.0 0.00 0.00 0.00 86 1011.0
20260507063624 74 169 7.0 11.0 0.00 0.00 0.00 86 1011.2
20260507063121 74 239 5.0 13.0 0.00 0.00 0.00 87 1011.4
20260507062617 74 229 5.0 7.0 0.00 0.00 0.00 87 1011.5
20260507062115 74 223 5.0 8.0 0.00 0.00 0.00 87 1011.4
20260507061613 74 178 4.0 7.0 0.00 0.00 0.00 87 1011.7
20260507061111 74 280 4.0 7.0 0.00 0.00 0.00 87 1012.0
20260507060609 74 203 8.0 11.0 0.00 0.00 0.00 87 1012.2
20260507060105 74 209 1.0 7.0 0.00 0.00 0.00 87 1012.0
20260507055600 74 220 6.0 11.0 0.00 0.00 0.00 87 1012.3
20260507055056 74 254 4.0 10.0 0.00 0.00 0.00 87 1012.4
20260507054552 74 218 7.0 8.0 0.00 0.00 0.00 87 1012.4
20260507054050 74 178 3.0 5.0 0.00 0.00 0.00 87 1012.4
20260507053548 74 240 4.0 9.0 0.00 0.00 0.00 87 1012.7
20260507053046 74 235 2.0 3.0 0.00 0.00 0.00 87 1012.5
20260507052543 74 259 5.0 7.0 0.00 0.00 0.00 87 1012.7
20260507052040 74 255 2.0 3.0 0.00 0.00 0.00 87 1012.7
20260507051538 74 224 2.0 3.0 0.00 0.00 0.00 87 1012.6
20260507051034 74 181 1.0 3.0 0.00 0.00 0.00 87 1012.6
20260507050531 74 234 0.0 1.0 0.00 0.00 0.00 87 1013.1
20260507050027 74 163 3.0 7.0 0.00 0.00 0.00 87 1013.1
20260507045524 74 207 1.0 5.0 0.00 0.00 0.00 87 1012.9
20260507045021 74 211 3.0 6.0 0.00 0.00 0.00 87 1013.0
20260507044518 74 208 4.0 8.0 0.00 0.00 0.00 87 1012.8
20260507044015 74 135 2.0 3.0 0.00 0.00 0.00 87 1012.8
20260507043511 74 192 3.0 8.0 0.00 0.00 0.00 87 1012.9
20260507043008 74 206 2.0 6.0 0.00 0.00 0.00 87 1013.0
20260507042504 74 197 3.0 7.0 0.00 0.00 0.00 87 1012.6
20260507041959 74 223 5.0 9.0 0.00 0.00 0.00 87 1012.7
20260507041457 74 163 7.0 14.0 0.00 0.00 0.00 87 1013.0
20260507040954 74 203 5.0 13.0 0.00 0.00 0.00 87 1012.7
20260507040449 74 157 6.0 7.0 0.00 0.00 0.00 87 1012.9
20260507035945 74 189 10.0 13.0 0.00 0.00 0.00 87 1012.8
20260507035442 74 256 4.0 11.0 0.00 0.00 0.00 87 1012.5
20260507034939 74 190 7.0 11.0 0.00 0.00 0.00 87 1012.7
20260507034436 74 206 5.0 8.0 0.00 0.00 0.00 87 1012.6
20260507033934 74 195 7.0 9.0 0.00 0.00 0.00 87 1012.1
20260507033431 74 193 6.0 15.0 0.00 0.00 0.00 88 1012.3
20260507032928 74 181 6.0 8.0 0.00 0.00 0.00 87 1012.5
20260507032425 74 233 5.0 9.0 0.00 0.00 0.00 87 1012.3
20260507031921 74 167 7.0 10.0 0.00 0.00 0.00 88 1012.3
20260507031418 74 215 6.0 10.0 0.00 0.00 0.00 88 1011.9
20260507030915 74 231 6.0 9.0 0.00 0.00 0.00 88 1012.1
20260507030412 74 190 5.0 13.0 0.00 0.00 0.00 88 1012.1
20260507025909 74 224 5.0 10.0 0.00 0.00 0.00 88 1012.6
20260507025406 74 207 5.0 11.0 0.00 0.00 0.00 88 1012.4